Location: Maccacari
(45.1333°N, 11.1333°E)
Time: 05:59:00
(UTC+00:00)

S-56A Canister/Altair - Visible Passes

Search period start: 28 January 2021 00:00
Search period end: 07 February 2021 00:00
Orbit: 633 x 2499 km, 38.9° (Epoch: 27 January)

Date Brightness Start Highest point End Pass type
(mag) Time Alt. Az. Time Alt. Az. Time Alt. Az.
28 Jan 10.0 03:07:18 13° ESE 03:07:18 13° ESE 03:07:55 10° ESE visible
28 Jan 8.9 05:04:44 17° SW 05:06:36 21° SSW 05:10:45 10° SSE visible
29 Jan 8.7 04:33:54 23° SSW 04:34:06 23° SSW 04:38:08 10° SSE visible
30 Jan 9.1 04:03:05 21° S 04:03:05 21° S 04:05:33 10° SE visible
31 Jan 9.8 03:32:18 13° SSE 03:32:18 13° SSE 03:33:02 10° SE visible
05 Feb 10.7 20:00:13 10° SSW 20:02:13 15° S 20:02:13 15° S visible
06 Feb 10.3 19:27:12 10° SSW 19:31:42 19° S 19:31:42 19° S visible
